Location: Sungai Anya
(2.6167°N, 114.0500°E)
Time: 12:15:39
(UTC+00:00)

Ariane H10-3 - Pass Details

Date: 19 October 2021
Orbit: 515 x 36408 km, 4.6° (Epoch: 28 November)

Event Time Altitude Azimuth Distance (km) Brightness Sun altitude
Rises 10:20:52 0° 273° (W) 8,907 9.5 -3.4°
Reaches altitude 10° 10:29:54 10° 274° (W) 5,047 7.8 -5.7°
Maximum altitude 10:39:27 78° 0° (N) 796 2.1 -8.0°
Enters shadow 10:42:36 11° 87° (E) 1,743 3.2 -8.8°
